{"data":{"norad_id":59359,"intl_designator":"2024-060M","name":"STARLINK-31501","alt_names":[],"object_type":"PAYLOAD","status":"ACTIVE","operator":null,"country":"US","launch_date":"2024-03-31","launch_site_code":"AFETR","launch_vehicle":null,"mission":null,"orbit_class":"UNKNOWN","rcs_meters":null,"size_class":null,"mass_kg":null,"dimensions":null,"purposes":["comms"],"wikipedia_slug":null,"has_3d_model":false,"image_url":null,"decayed_at":null,"tle_current":{"epoch":"2026-05-24T11:54:18.345888Z","epoch_age_seconds":112478,"freshness":"FRESH","line1":"1 59359U 24060M   26144.49604567 -.00000674  00000+0 -14979-4 0  9993","line2":"2 59359  42.9994 191.9862 0001173 271.3433  88.7284 15.27574273121656","mean_motion":15.27574273,"eccentricity":0.0001173,"inclination_deg":42.9994,"raan_deg":191.9862,"arg_perigee_deg":271.3433,"mean_anomaly_deg":88.7284,"bstar":-1.4979e-5,"rev_number":12165,"period_min":94.267102127348,"perigee_km":482.26142565089,"apogee_km":483.87106393212,"semimajor_km":6861.2032447915,"source":"CELESTRAK","updated_at":"2026-05-25T13:38:18.910506Z"}}}